Time,TemperatureF,DewpointF,PressureIn,WindDirection,WindDirectionDegrees,WindSpeedMPH,WindSpeedGustMPH,Humidity,HourlyPrecipIn,Conditions,Clouds,dailyrainin,SolarRadiationWatts/m^2,SoftwareType,DateUTC
2013-03-14 00:05:00,47.6,48.0,30.14,West,278,1.0,5.0,100,0.00,,,0.00,0,weatherlink.com 1.10,2013-03-14 07:05:00,
2013-03-14 00:20:00,47.8,48.0,30.14,WNW,290,2.0,6.0,100,0.00,,,0.00,0,weatherlink.com 1.10,2013-03-14 07:20:00,
2013-03-14 00:35:00,47.3,47.0,30.14,West,268,3.0,7.0,100,0.00,,,0.00,0,weatherlink.com 1.10,2013-03-14 07:35:00,
2013-03-14 00:50:00,47.2,47.0,30.14,West,259,1.0,6.0,100,0.00,,,0.00,0,weatherlink.com 1.10,2013-03-14 07:50:00,
2013-03-14 01:04:00,47.1,47.0,30.13,West,263,1.0,3.0,100,0.00,,,0.00,0,weatherlink.com 1.10,2013-03-14 08:04:00,
2013-03-14 01:20:00,47.6,48.0,30.13,West,263,1.0,1.0,100,0.01,,,0.01,0,weatherlink.com 1.10,2013-03-14 08:20:00,
2013-03-14 01:34:00,47.5,48.0,30.13,West,263,0.0,0.0,100,0.01,,,0.01,0,weatherlink.com 1.10,2013-03-14 08:34:00,
2013-03-14 01:49:00,47.2,47.0,30.13,WSW,250,1.0,5.0,100,0.01,,,0.01,0,weatherlink.com 1.10,2013-03-14 08:49:00,
2013-03-14 02:05:00,47.1,47.0,30.13,SW,236,0.0,4.0,100,0.01,,,0.01,0,weatherlink.com 1.10,2013-03-14 09:05:00,
2013-03-14 02:21:00,47.4,47.0,30.14,SW,235,0.0,2.0,100,0.00,,,0.01,0,weatherlink.com 1.10,2013-03-14 09:21:00,
2013-03-14 02:36:00,47.7,48.0,30.14,SW,235,0.0,4.0,100,0.00,,,0.01,0,weatherlink.com 1.10,2013-03-14 09:36:00,
2013-03-14 02:51:00,47.0,47.0,30.13,SW,235,0.0,0.0,100,0.00,,,0.01,0,weatherlink.com 1.10,2013-03-14 09:51:00,
2013-03-14 03:06:00,47.4,47.0,30.13,SW,235,0.0,4.0,100,0.00,,,0.01,0,weatherlink.com 1.10,2013-03-14 10:06:00,
2013-03-14 03:21:00,47.4,47.0,30.13,SW,219,0.0,5.0,100,0.00,,,0.01,0,weatherlink.com 1.10,2013-03-14 10:21:00,
2013-03-14 03:36:00,47.6,48.0,30.12,West,263,1.0,5.0,100,0.00,,,0.01,0,weatherlink.com 1.10,2013-03-14 10:36:00,
2013-03-14 03:51:00,47.6,48.0,30.12,WNW,294,0.0,5.0,100,0.00,,,0.01,0,weatherlink.com 1.10,2013-03-14 10:51:00,
2013-03-14 04:06:00,47.6,48.0,30.11,WNW,292,0.0,0.0,100,0.00,,,0.01,0,weatherlink.com 1.10,2013-03-14 11:06:00,
2013-03-14 04:22:00,47.2,47.0,30.11,WNW,292,0.0,0.0,100,0.00,,,0.01,0,weatherlink.com 1.10,2013-03-14 11:22:00,
2013-03-14 04:37:00,47.4,47.0,30.11,West,277,0.0,4.0,100,0.00,,,0.01,0,weatherlink.com 1.10,2013-03-14 11:37:00,
2013-03-14 04:52:00,47.6,48.0,30.11,SSW,196,0.0,4.0,100,0.00,,,0.01,0,weatherlink.com 1.10,2013-03-14 11:52:00,
2013-03-14 05:07:00,47.6,48.0,30.11,South,185,2.0,5.0,100,0.00,,,0.01,0,weatherlink.com 1.10,2013-03-14 12:07:00,
2013-03-14 05:22:00,47.7,48.0,30.11,SSW,192,1.0,5.0,100,0.00,,,0.01,0,weatherlink.com 1.10,2013-03-14 12:22:00,
2013-03-14 05:37:00,47.0,47.0,30.11,SW,226,1.0,5.0,100,0.00,,,0.01,0,weatherlink.com 1.10,2013-03-14 12:37:00,
2013-03-14 05:51:00,47.1,47.0,30.12,SSW,209,0.0,4.0,100,0.00,,,0.01,0,weatherlink.com 1.10,2013-03-14 12:51:00,
2013-03-14 06:06:00,46.7,47.0,30.11,SSE,166,0.0,2.0,100,0.00,,,0.01,0,weatherlink.com 1.10,2013-03-14 13:06:00,
2013-03-14 06:22:00,46.7,47.0,30.12,SSE,151,2.0,3.0,100,0.00,,,0.01,0,weatherlink.com 1.10,2013-03-14 13:22:00,
2013-03-14 06:37:00,46.4,46.0,30.12,SE,145,2.0,4.0,100,0.00,,,0.01,0,weatherlink.com 1.10,2013-03-14 13:37:00,
2013-03-14 06:53:00,46.6,47.0,30.13,SE,142,0.0,2.0,100,0.00,,,0.01,0,weatherlink.com 1.10,2013-03-14 13:53:00,
2013-03-14 07:08:00,47.1,47.0,30.13,SSW,204,1.0,5.0,100,0.00,,,0.01,0,weatherlink.com 1.10,2013-03-14 14:08:00,
2013-03-14 07:23:00,47.0,47.0,30.13,South,182,2.0,2.0,100,0.00,,,0.01,0,weatherlink.com 1.10,2013-03-14 14:23:00,
2013-03-14 07:38:00,46.8,47.0,30.14,SSE,161,0.0,4.0,100,0.00,,,0.01,9,weatherlink.com 1.10,2013-03-14 14:38:00,
2013-03-14 07:53:00,46.6,47.0,30.14,SE,144,1.0,4.0,100,0.00,,,0.01,32,weatherlink.com 1.10,2013-03-14 14:53:00,
2013-03-14 08:08:00,46.6,47.0,30.14,SE,143,2.0,2.0,100,0.00,,,0.01,44,weatherlink.com 1.10,2013-03-14 15:08:00,
2013-03-14 08:23:00,47.2,47.0,30.14,South,175,0.0,5.0,100,0.00,,,0.01,56,weatherlink.com 1.10,2013-03-14 15:23:00,
2013-03-14 08:37:00,47.2,47.0,30.15,SE,139,1.0,4.0,100,0.00,,,0.01,65,weatherlink.com 1.10,2013-03-14 15:37:00,
2013-03-14 08:53:00,47.5,48.0,30.16,SE,134,0.0,3.0,100,0.00,,,0.01,86,weatherlink.com 1.10,2013-03-14 15:53:00,
2013-03-14 09:09:00,47.8,48.0,30.16,ESE,113,1.0,5.0,100,0.00,,,0.01,174,weatherlink.com 1.10,2013-03-14 16:09:00,
2013-03-14 09:24:00,48.2,48.0,30.17,South,175,0.0,5.0,100,0.00,,,0.01,183,weatherlink.com 1.10,2013-03-14 16:24:00,
2013-03-14 09:38:00,47.9,48.0,30.18,SW,215,2.0,7.0,100,0.00,,,0.01,193,weatherlink.com 1.10,2013-03-14 16:38:00,
2013-03-14 09:54:00,48.5,49.0,30.18,SW,215,0.0,5.0,100,0.00,,,0.01,132,weatherlink.com 1.10,2013-03-14 16:54:00,
2013-03-14 10:08:00,48.6,49.0,30.18,SSE,166,1.0,2.0,100,0.00,,,0.01,162,weatherlink.com 1.10,2013-03-14 17:08:00,
2013-03-14 10:24:00,49.2,49.0,30.17,SSW,211,4.0,4.0,100,0.00,,,0.01,243,weatherlink.com 1.10,2013-03-14 17:24:00,
2013-03-14 10:38:00,49.9,50.0,30.18,West,270,4.0,5.0,100,0.00,,,0.01,246,weatherlink.com 1.10,2013-03-14 17:38:00,
2013-03-14 10:54:00,49.7,50.0,30.18,WNW,283,2.0,2.0,100,0.00,,,0.01,251,weatherlink.com 1.10,2013-03-14 17:54:00,
2013-03-14 11:10:00,49.5,50.0,30.20,West,271,10.0,10.0,100,0.00,,,0.01,223,weatherlink.com 1.10,2013-03-14 18:10:00,
2013-03-14 11:25:00,49.2,49.0,30.19,NW,313,1.0,8.0,100,0.00,,,0.01,260,weatherlink.com 1.10,2013-03-14 18:25:00,
2013-03-14 11:40:00,49.3,49.0,30.18,WNW,285,2.0,7.0,100,0.00,,,0.01,401,weatherlink.com 1.10,2013-03-14 18:40:00,
2013-03-14 11:55:00,50.2,50.0,30.18,WSW,237,1.0,5.0,100,0.00,,,0.01,329,weatherlink.com 1.10,2013-03-14 18:55:00,
2013-03-14 12:11:00,50.7,51.0,30.18,SW,219,2.0,6.0,100,0.00,,,0.01,492,weatherlink.com 1.10,2013-03-14 19:11:00,
2013-03-14 12:25:00,50.8,51.0,30.19,SW,229,4.0,5.0,100,0.00,,,0.01,418,weatherlink.com 1.10,2013-03-14 19:25:00,
2013-03-14 12:40:00,51.0,51.0,30.19,West,273,5.0,9.0,100,0.00,,,0.01,577,weatherlink.com 1.10,2013-03-14 19:40:00,
2013-03-14 12:56:00,53.2,53.0,30.18,WNW,282,0.0,6.0,99,0.00,,,0.01,780,weatherlink.com 1.10,2013-03-14 19:56:00,
2013-03-14 13:11:00,55.8,54.0,30.17,West,261,5.0,6.0,95,0.00,,,0.01,786,weatherlink.com 1.10,2013-03-14 20:11:00,
2013-03-14 13:41:00,53.9,51.0,30.17,West,267,5.0,7.0,91,0.00,,,0.01,385,weatherlink.com 1.10,2013-03-14 20:41:00,
2013-03-14 13:56:00,56.0,53.0,30.16,WNW,300,5.0,8.0,89,0.00,,,0.01,369,weatherlink.com 1.10,2013-03-14 20:56:00,
2013-03-14 14:11:00,56.9,53.0,30.16,NW,306,3.0,9.0,86,0.00,,,0.01,809,weatherlink.com 1.10,2013-03-14 21:11:00,
2013-03-14 14:26:00,56.2,52.0,30.17,NW,317,4.0,8.0,85,0.00,,,0.01,397,weatherlink.com 1.10,2013-03-14 21:26:00,
2013-03-14 14:41:00,55.1,51.0,30.16,West,277,5.0,14.0,86,0.00,,,0.01,459,weatherlink.com 1.10,2013-03-14 21:41:00,
2013-03-14 14:57:00,55.6,52.0,30.16,WNW,286,9.0,12.0,88,0.00,,,0.01,563,weatherlink.com 1.10,2013-03-14 21:57:00,
2013-03-14 15:12:00,54.1,51.0,30.17,West,272,8.0,16.0,88,0.00,,,0.01,345,weatherlink.com 1.10,2013-03-14 22:12:00,
2013-03-14 15:27:00,53.4,51.0,30.18,NW,324,9.0,15.0,90,0.00,,,0.01,327,weatherlink.com 1.10,2013-03-14 22:27:00,
2013-03-14 15:42:00,54.3,52.0,30.16,WNW,288,9.0,16.0,90,0.00,,,0.01,497,weatherlink.com 1.10,2013-03-14 22:42:00,
2013-03-14 15:57:00,53.7,51.0,30.17,NW,314,9.0,13.0,91,0.00,,,0.01,380,weatherlink.com 1.10,2013-03-14 22:57:00,
2013-03-14 16:12:00,53.5,51.0,30.16,WNW,293,8.0,13.0,90,0.00,,,0.01,376,weatherlink.com 1.10,2013-03-14 23:12:00,
2013-03-14 16:26:00,53.2,51.0,30.16,WNW,300,4.0,14.0,91,0.00,,,0.01,230,weatherlink.com 1.10,2013-03-14 23:26:00,
2013-03-14 16:42:00,52.1,50.0,30.17,WNW,290,7.0,19.0,92,0.00,,,0.01,171,weatherlink.com 1.10,2013-03-14 23:42:00,
2013-03-14 16:57:00,52.0,50.0,30.16,North,355,3.0,14.0,93,0.00,,,0.01,202,weatherlink.com 1.10,2013-03-14 23:57:00,
2013-03-14 17:12:00,52.2,50.0,30.15,NW,308,0.0,11.0,93,0.00,,,0.01,220,weatherlink.com 1.10,2013-03-15 00:12:00,
2013-03-14 17:28:00,52.1,50.0,30.13,WNW,292,0.0,9.0,93,0.00,,,0.01,142,weatherlink.com 1.10,2013-03-15 00:28:00,
2013-03-14 17:43:00,52.3,50.0,30.13,NNW,343,0.0,6.0,92,0.00,,,0.01,128,weatherlink.com 1.10,2013-03-15 00:43:00,
2013-03-14 17:57:00,52.7,50.0,30.13,WNW,290,1.0,6.0,91,0.00,,,0.01,91,weatherlink.com 1.10,2013-03-15 00:57:00,
2013-03-14 18:13:00,52.9,50.0,30.14,West,263,7.0,8.0,90,0.00,,,0.01,76,weatherlink.com 1.10,2013-03-15 01:13:00,
2013-03-14 18:28:00,52.2,50.0,30.15,WSW,242,5.0,11.0,91,0.00,,,0.01,56,weatherlink.com 1.10,2013-03-15 01:28:00,
2013-03-14 18:43:00,52.2,50.0,30.14,NNW,336,0.0,7.0,92,0.00,,,0.01,28,weatherlink.com 1.10,2013-03-15 01:43:00,
2013-03-14 18:58:00,52.3,50.0,30.15,West,267,5.0,10.0,92,0.00,,,0.01,32,weatherlink.com 1.10,2013-03-15 01:58:00,
2013-03-14 19:13:00,51.6,49.0,30.15,West,273,0.0,10.0,92,0.00,,,0.01,16,weatherlink.com 1.10,2013-03-15 02:13:00,
2013-03-14 19:28:00,51.6,50.0,30.14,West,259,3.0,6.0,93,0.00,,,0.01,0,weatherlink.com 1.10,2013-03-15 02:28:00,
2013-03-14 19:43:00,51.2,50.0,30.15,West,271,1.0,12.0,94,0.00,,,0.01,0,weatherlink.com 1.10,2013-03-15 02:43:00,
2013-03-14 19:59:00,50.8,49.0,30.14,NW,304,3.0,9.0,94,0.00,,,0.01,0,weatherlink.com 1.10,2013-03-15 02:59:00,
2013-03-14 20:14:00,50.7,49.0,30.15,West,269,4.0,9.0,95,0.00,,,0.01,0,weatherlink.com 1.10,2013-03-15 03:14:00,
2013-03-14 20:29:00,50.7,49.0,30.15,WNW,291,5.0,8.0,95,0.00,,,0.01,0,weatherlink.com 1.10,2013-03-15 03:29:00,
2013-03-14 20:59:00,50.5,49.0,30.14,NW,323,0.0,5.0,96,0.00,,,0.01,0,weatherlink.com 1.10,2013-03-15 03:59:00,
2013-03-14 21:13:00,50.6,50.0,30.15,WNW,284,4.0,9.0,96,0.00,,,0.01,0,weatherlink.com 1.10,2013-03-15 04:13:00,
2013-03-14 21:29:00,50.3,49.0,30.16,West,277,6.0,7.0,96,0.00,,,0.01,0,weatherlink.com 1.10,2013-03-15 04:29:00,
2013-03-14 21:44:00,50.1,49.0,30.15,West,261,5.0,10.0,96,0.00,,,0.01,0,weatherlink.com 1.10,2013-03-15 04:44:00,
2013-03-14 21:59:00,50.0,49.0,30.15,WNW,296,2.0,6.0,96,0.00,,,0.01,0,weatherlink.com 1.10,2013-03-15 04:59:00,
2013-03-14 22:14:00,49.9,49.0,30.15,West,268,0.0,5.0,96,0.00,,,0.01,0,weatherlink.com 1.10,2013-03-15 05:14:00,
2013-03-14 22:30:00,49.8,49.0,30.16,West,264,1.0,5.0,96,0.00,,,0.01,0,weatherlink.com 1.10,2013-03-15 05:30:00,
2013-03-14 22:44:00,49.7,49.0,30.14,West,264,0.0,2.0,96,0.00,,,0.01,0,weatherlink.com 1.10,2013-03-15 05:44:00,
2013-03-14 23:00:00,49.3,48.0,30.15,East,92,6.0,6.0,96,0.00,,,0.01,0,weatherlink.com 1.10,2013-03-15 06:00:00,
2013-03-14 23:14:00,48.1,47.0,30.15,ESE,105,2.0,5.0,96,0.00,,,0.01,0,weatherlink.com 1.10,2013-03-15 06:14:00,
2013-03-14 23:30:00,48.4,48.0,30.15,East,93,2.0,7.0,97,0.00,,,0.01,0,weatherlink.com 1.10,2013-03-15 06:30:00,
2013-03-14 23:45:00,47.9,47.0,30.14,ESE,107,2.0,6.0,97,0.00,,,0.01,0,weatherlink.com 1.10,2013-03-15 06:45:00,